| time (UTC) | temp F | wind direction | speed MPH | gust MPH | rain 1hr in | rain 24hr in | rain mn in | humidity % | barometer mb |
| 20260510034504 | 44 | 113 | 5.0 | 13.0 | 0.00 | 0.00 | 0.00 | 76 | 1010.3 |
| 20260510034005 | 44 | 95 | 3.0 | 9.0 | 0.00 | 0.00 | 0.00 | 75 | 1010.1 |
| 20260510033505 | 44 | 40 | 3.0 | 7.0 | 0.00 | 0.00 | 0.00 | 75 | 1010.1 |
| 20260510033005 | 44 | 91 | 3.0 | 6.0 | 0.00 | 0.00 | 0.00 | 73 | 1009.9 |
| 20260510032504 | 45 | 90 | 4.0 | 7.0 | 0.00 | 0.00 | 0.00 | 73 | 1009.7 |
| 20260510032004 | 45 | 132 | 3.0 | 5.0 | 0.00 | 0.00 | 0.00 | 71 | 1009.7 |
| 20260510031504 | 45 | 135 | 4.0 | 8.0 | 0.00 | 0.00 | 0.00 | 71 | 1009.5 |
| 20260510031005 | 45 | 116 | 5.0 | 9.0 | 0.00 | 0.00 | 0.00 | 70 | 1009.1 |
| 20260510030005 | 45 | 125 | 9.0 | 12.0 | 0.00 | 0.00 | 0.00 | 69 | 1009.0 |
| 20260510025504 | 45 | 148 | 8.0 | 12.0 | 0.00 | 0.00 | 0.00 | 68 | 1009.1 |
| 20260510025005 | 46 | 129 | 5.0 | 10.0 | 0.00 | 0.00 | 0.00 | 67 | 1009.3 |
| 20260510024504 | 46 | 101 | 9.0 | 13.0 | 0.00 | 0.00 | 0.00 | 67 | 1009.3 |
| 20260510024004 | 45 | 151 | 8.0 | 13.0 | 0.00 | 0.00 | 0.00 | 67 | 1008.5 |
| 20260510023504 | 45 | 118 | 7.0 | 12.0 | 0.00 | 0.00 | 0.00 | 69 | 1008.1 |
| 20260510023004 | 45 | 129 | 8.0 | 14.0 | 0.00 | 0.00 | 0.00 | 70 | 1007.6 |
| 20260510022504 | 45 | 126 | 10.0 | 16.0 | 0.00 | 0.00 | 0.00 | 72 | 1007.4 |
| 20260510022004 | 44 | 141 | 10.0 | 17.0 | 0.00 | 0.00 | 0.00 | 73 | 1007.0 |
| 20260510021504 | 45 | 115 | 7.0 | 13.0 | 0.00 | 0.00 | 0.00 | 73 | 1006.7 |
| 20260510021005 | 45 | 89 | 8.0 | 15.0 | 0.00 | 0.00 | 0.00 | 72 | 1006.3 |
| 20260510020505 | 45 | 87 | 9.0 | 14.0 | 0.00 | 0.00 | 0.00 | 71 | 1006.2 |
| 20260510020005 | 45 | 88 | 12.0 | 17.0 | 0.00 | 0.00 | 0.00 | 71 | 1006.2 |
| 20260510015504 | 45 | 79 | 12.0 | 16.0 | 0.00 | 0.00 | 0.00 | 70 | 1006.2 |
| 20260510015004 | 46 | 89 | 12.0 | 18.0 | 0.00 | 0.00 | 0.00 | 69 | 1005.9 |
| 20260510014504 | 46 | 78 | 12.0 | 17.0 | 0.00 | 0.00 | 0.00 | 68 | 1006.1 |
| 20260510014004 | 46 | 49 | 12.0 | 20.0 | 0.00 | 0.00 | 0.00 | 67 | 1006.1 |
| 20260510013504 | 47 | 71 | 18.0 | 25.0 | 0.00 | 0.00 | 0.00 | 66 | 1005.5 |
| 20260510013005 | 47 | 95 | 16.0 | 23.0 | 0.00 | 0.00 | 0.00 | 64 | 1004.9 |
| 20260510012504 | 49 | 95 | 10.0 | 24.0 | 0.00 | 0.00 | 0.00 | 62 | 1005.0 |
| 20260510012004 | 50 | 56 | 10.0 | 15.0 | 0.00 | 0.00 | 0.00 | 60 | 1004.9 |
| 20260510011504 | 50 | 0 | 12.0 | 18.0 | 0.00 | 0.00 | 0.00 | 59 | 1004.9 |
| 20260510011004 | 51 | 52 | 12.0 | 18.0 | 0.00 | 0.00 | 0.00 | 57 | 1004.8 |
| 20260510010504 | 51 | 80 | 10.0 | 18.0 | 0.00 | 0.00 | 0.00 | 55 | 1004.6 |
| 20260510010004 | 53 | 55 | 9.0 | 17.0 | 0.00 | 0.00 | 0.00 | 53 | 1004.6 |
| 20260510005504 | 53 | 25 | 10.0 | 17.0 | 0.00 | 0.00 | 0.00 | 52 | 1004.5 |
| 20260510005004 | 54 | 16 | 8.0 | 14.0 | 0.00 | 0.00 | 0.00 | 49 | 1004.6 |
| 20260510004504 | 54 | 328 | 3.0 | 18.0 | 0.00 | 0.00 | 0.00 | 50 | 1004.6 |
| 20260510004005 | 54 | 82 | 10.0 | 20.0 | 0.00 | 0.00 | 0.00 | 49 | 1004.4 |
| 20260510003504 | 55 | 86 | 13.0 | 20.0 | 0.00 | 0.00 | 0.00 | 46 | 1004.3 |
| 20260510003004 | 58 | 63 | 10.0 | 16.0 | 0.00 | 0.00 | 0.00 | 42 | 1004.4 |
| 20260510002505 | 61 | 112 | 6.0 | 12.0 | 0.00 | 0.00 | 0.00 | 37 | 1004.6 |
| 20260510002005 | 63 | 2 | 2.0 | 10.0 | 0.00 | 0.00 | 0.00 | 20 | 1004.3 |
| 20260510001504 | 62 | 224 | 7.0 | 12.0 | 0.00 | 0.00 | 0.00 | 18 | 1004.3 |
| 20260510001005 | 62 | 232 | 7.0 | 15.0 | 0.00 | 0.00 | 0.00 | 18 | 1004.3 |
| 20260510000504 | 62 | 260 | 5.0 | 16.0 | 0.00 | 0.00 | 0.00 | 19 | 1004.3 |
| 20260509235504 | 62 | 222 | 10.0 | 15.0 | 0.00 | 0.00 | 0.00 | 16 | 1004.1 |
| 20260509235005 | 63 | 220 | 5.0 | 13.0 | 0.00 | 0.00 | 0.00 | 18 | 1004.1 |
| 20260509234504 | 63 | 253 | 6.0 | 17.0 | 0.00 | 0.00 | 0.00 | 19 | 1004.2 |
| 20260509234004 | 64 | 242 | 9.0 | 20.0 | 0.00 | 0.00 | 0.00 | 18 | 1004.1 |
| 20260509233504 | 64 | 255 | 8.0 | 16.0 | 0.00 | 0.00 | 0.00 | 17 | 1004.1 |
| 20260509233004 | 64 | 251 | 5.0 | 16.0 | 0.00 | 0.00 | 0.00 | 17 | 1004.0 |
| 20260509232504 | 65 | 260 | 9.0 | 18.0 | 0.00 | 0.00 | 0.00 | 17 | 1003.8 |
| 20260509232004 | 67 | 259 | 7.0 | 16.0 | 0.00 | 0.00 | 0.00 | 16 | 1003.6 |
| 20260509231504 | 66 | 287 | 5.0 | 13.0 | 0.00 | 0.00 | 0.00 | 17 | 1003.6 |
| 20260509231004 | 66 | 260 | 6.0 | 20.0 | 0.00 | 0.00 | 0.00 | 18 | 1003.6 |
| 20260509230504 | 66 | 295 | 11.0 | 18.0 | 0.00 | 0.00 | 0.00 | 17 | 1003.6 |
| 20260509230004 | 65 | 235 | 11.0 | 18.0 | 0.00 | 0.00 | 0.00 | 16 | 1003.6 |
| 20260509225504 | 67 | 270 | 3.0 | 15.0 | 0.00 | 0.00 | 0.00 | 15 | 1003.5 |
| 20260509225004 | 67 | 288 | 12.0 | 23.0 | 0.00 | 0.00 | 0.00 | 16 | 1003.4 |
| 20260509224504 | 67 | 304 | 10.0 | 22.0 | 0.00 | 0.00 | 0.00 | 16 | 1003.2 |
| 20260509224005 | 66 | 285 | 10.0 | 20.0 | 0.00 | 0.00 | 0.00 | 15 | 1003.4 |
| 20260509223504 | 66 | 254 | 12.0 | 23.0 | 0.00 | 0.00 | 0.00 | 17 | 1003.2 |
| 20260509223005 | 66 | 257 | 13.0 | 22.0 | 0.00 | 0.00 | 0.00 | 15 | 1003.0 |
| 20260509222504 | 66 | 261 | 11.0 | 23.0 | 0.00 | 0.00 | 0.00 | 15 | 1003.2 |
| 20260509222004 | 66 | 289 | 9.0 | 20.0 | 0.00 | 0.00 | 0.00 | 15 | 1003.0 |
| 20260509221505 | 66 | 248 | 7.0 | 16.0 | 0.00 | 0.00 | 0.00 | 16 | 1003.0 |
| 20260509220504 | 66 | 235 | 6.0 | 15.0 | 0.00 | 0.00 | 0.00 | 18 | 1003.1 |
| 20260509220004 | 66 | 274 | 10.0 | 21.0 | 0.00 | 0.00 | 0.00 | 18 | 1003.5 |
| 20260509215504 | 65 | 255 | 8.0 | 22.0 | 0.00 | 0.00 | 0.00 | 17 | 1003.6 |
| 20260509215004 | 65 | 249 | 12.0 | 22.0 | 0.00 | 0.00 | 0.00 | 15 | 1003.6 |
| 20260509214004 | 65 | 245 | 13.0 | 21.0 | 0.00 | 0.00 | 0.00 | 17 | 1003.5 |
| 20260509213005 | 67 | 230 | 8.0 | 14.0 | 0.00 | 0.00 | 0.00 | 16 | 1003.5 |
| 20260509212504 | 66 | 227 | 6.0 | 21.0 | 0.00 | 0.00 | 0.00 | 19 | 1003.5 |
| 20260509212004 | 66 | 228 | 4.0 | 12.0 | 0.00 | 0.00 | 0.00 | 17 | 1003.5 |
| 20260509211505 | 65 | 182 | 4.0 | 18.0 | 0.00 | 0.00 | 0.00 | 21 | 1003.6 |
| 20260509211004 | 65 | 227 | 9.0 | 17.0 | 0.00 | 0.00 | 0.00 | 17 | 1003.6 |
| 20260509210004 | 66 | 216 | 6.0 | 16.0 | 0.00 | 0.00 | 0.00 | 14 | 1003.6 |
| 20260509205504 | 66 | 269 | 7.0 | 17.0 | 0.00 | 0.00 | 0.00 | 19 | 1003.7 |
| 20260509205004 | 66 | 283 | 8.0 | 17.0 | 0.00 | 0.00 | 0.00 | 17 | 1003.6 |
| 20260509204504 | 66 | 251 | 7.0 | 14.0 | 0.00 | 0.00 | 0.00 | 16 | 1003.6 |
| 20260509204004 | 66 | 314 | 5.0 | 16.0 | 0.00 | 0.00 | 0.00 | 17 | 1003.6 |
| 20260509203504 | 66 | 249 | 9.0 | 16.0 | 0.00 | 0.00 | 0.00 | 18 | 1003.6 |
| 20260509202004 | 68 | 254 | 3.0 | 15.0 | 0.00 | 0.00 | 0.00 | 17 | 1003.5 |
| 20260509201504 | 68 | 284 | 10.0 | 20.0 | 0.00 | 0.00 | 0.00 | 17 | 1003.6 |
| 20260509201005 | 67 | 260 | 4.0 | 12.0 | 0.00 | 0.00 | 0.00 | 21 | 1003.5 |
| 20260509200004 | 67 | 311 | 10.0 | 16.0 | 0.00 | 0.00 | 0.00 | 20 | 1003.5 |
| 20260509195505 | 66 | 341 | 3.0 | 7.0 | 0.00 | 0.00 | 0.00 | 19 | 1003.8 |
| 20260509195004 | 66 | 253 | 6.0 | 14.0 | 0.00 | 0.00 | 0.00 | 18 | 1004.3 |
| 20260509194504 | 65 | 277 | 9.0 | 20.0 | 0.00 | 0.00 | 0.00 | 18 | 1004.5 |
| 20260509194004 | 65 | 256 | 12.0 | 20.0 | 0.00 | 0.00 | 0.00 | 19 | 1004.4 |
| 20260509193504 | 64 | 237 | 9.0 | 20.0 | 0.00 | 0.00 | 0.00 | 19 | 1004.5 |
| 20260509193004 | 65 | 279 | 10.0 | 17.0 | 0.00 | 0.00 | 0.00 | 18 | 1004.3 |
| 20260509192504 | 64 | 257 | 10.0 | 20.0 | 0.00 | 0.00 | 0.00 | 18 | 1004.1 |
| 20260509192004 | 64 | 199 | 10.0 | 17.0 | 0.00 | 0.00 | 0.00 | 20 | 1004.2 |
| 20260509191504 | 64 | 238 | 6.0 | 16.0 | 0.00 | 0.00 | 0.00 | 19 | 1004.3 |
| 20260509191004 | 64 | 246 | 12.0 | 20.0 | 0.00 | 0.00 | 0.00 | 18 | 1004.4 |
| 20260509190504 | 64 | 332 | 9.0 | 17.0 | 0.00 | 0.00 | 0.00 | 17 | 1004.2 |
| 20260509190005 | 64 | 275 | 9.0 | 21.0 | 0.00 | 0.00 | 0.00 | 20 | 1004.2 |
| 20260509185504 | 64 | 264 | 7.0 | 15.0 | 0.00 | 0.00 | 0.00 | 18 | 1004.2 |
| 20260509185004 | 63 | 270 | 6.0 | 16.0 | 0.00 | 0.00 | 0.00 | 19 | 1004.1 |
| 20260509184504 | 63 | 269 | 6.0 | 15.0 | 0.00 | 0.00 | 0.00 | 18 | 1004.3 |
| 20260509184004 | 63 | 225 | 8.0 | 14.0 | 0.00 | 0.00 | 0.00 | 17 | 1004.2 |
| 20260509183504 | 62 | 224 | 1.0 | 14.0 | 0.00 | 0.00 | 0.00 | 20 | 1004.3 |
| 20260509183004 | 62 | 231 | 12.0 | 24.0 | 0.00 | 0.00 | 0.00 | 18 | 1004.5 |
| 20260509182504 | 62 | 213 | 13.0 | 21.0 | 0.00 | 0.00 | 0.00 | 19 | 1004.3 |
| 20260509182004 | 62 | 246 | 10.0 | 21.0 | 0.00 | 0.00 | 0.00 | 20 | 1004.2 |
| 20260509180504 | 62 | 236 | 6.0 | 10.0 | 0.00 | 0.00 | 0.00 | 20 | 1004.3 |
| 20260509180004 | 63 | 242 | 5.0 | 12.0 | 0.00 | 0.00 | 0.00 | 18 | 1004.2 |
| 20260509175504 | 62 | 206 | 9.0 | 16.0 | 0.00 | 0.00 | 0.00 | 21 | 1004.2 |
| 20260509174505 | 61 | 259 | 5.0 | 13.0 | 0.00 | 0.00 | 0.00 | 20 | 1004.3 |
| 20260509174004 | 61 | 215 | 6.0 | 12.0 | 0.00 | 0.00 | 0.00 | 20 | 1004.4 |
| 20260509173505 | 61 | 251 | 9.0 | 17.0 | 0.00 | 0.00 | 0.00 | 20 | 1004.6 |
| 20260509172504 | 61 | 259 | 9.0 | 17.0 | 0.00 | 0.00 | 0.00 | 20 | 1004.6 |
| 20260509171504 | 60 | 248 | 9.0 | 18.0 | 0.00 | 0.00 | 0.00 | 23 | 1004.5 |
| 20260509171004 | 60 | 247 | 13.0 | 20.0 | 0.00 | 0.00 | 0.00 | 18 | 1004.4 |
| 20260509170505 | 60 | 240 | 9.0 | 18.0 | 0.00 | 0.00 | 0.00 | 23 | 1004.2 |
| 20260509165504 | 60 | 245 | 13.0 | 20.0 | 0.00 | 0.00 | 0.00 | 20 | 1004.4 |
| 20260509165004 | 60 | 243 | 11.0 | 20.0 | 0.00 | 0.00 | 0.00 | 22 | 1004.6 |
| 20260509164505 | 60 | 255 | 8.0 | 15.0 | 0.00 | 0.00 | 0.00 | 21 | 1004.7 |
| 20260509164004 | 60 | 203 | 10.0 | 20.0 | 0.00 | 0.00 | 0.00 | 21 | 1004.6 |
| 20260509163505 | 60 | 252 | 9.0 | 20.0 | 0.00 | 0.00 | 0.00 | 20 | 1004.5 |
| 20260509163005 | 60 | 221 | 9.0 | 15.0 | 0.00 | 0.00 | 0.00 | 20 | 1004.5 |
| 20260509162504 | 60 | 223 | 9.0 | 16.0 | 0.00 | 0.00 | 0.00 | 22 | 1004.5 |
| 20260509162004 | 60 | 225 | 6.0 | 14.0 | 0.00 | 0.00 | 0.00 | 22 | 1004.6 |
| 20260509161505 | 60 | 206 | 5.0 | 12.0 | 0.00 | 0.00 | 0.00 | 22 | 1004.6 |
| 20260509161004 | 60 | 250 | 6.0 | 15.0 | 0.00 | 0.00 | 0.00 | 22 | 1004.6 |
| 20260509160504 | 60 | 249 | 9.0 | 14.0 | 0.00 | 0.00 | 0.00 | 20 | 1004.6 |
| 20260509155504 | 60 | 240 | 5.0 | 10.0 | 0.00 | 0.00 | 0.00 | 21 | 1004.5 |
| 20260509155004 | 59 | 277 | 6.0 | 13.0 | 0.00 | 0.00 | 0.00 | 20 | 1004.4 |
| 20260509154505 | 59 | 225 | 5.0 | 10.0 | 0.00 | 0.00 | 0.00 | 22 | 1004.3 |
| 20260509154004 | 59 | 246 | 5.0 | 12.0 | 0.00 | 0.00 | 0.00 | 22 | 1004.2 |
| 20260509153504 | 59 | 219 | 3.0 | 12.0 | 0.00 | 0.00 | 0.00 | 20 | 1004.2 |
| 20260509152504 | 58 | 236 | 2.0 | 10.0 | 0.00 | 0.00 | 0.00 | 21 | 1004.6 |
| 20260509152004 | 58 | 248 | 6.0 | 13.0 | 0.00 | 0.00 | 0.00 | 21 | 1004.5 |
| 20260509151505 | 58 | 242 | 3.0 | 6.0 | 0.00 | 0.00 | 0.00 | 22 | 1004.6 |
| 20260509151004 | 58 | 299 | 3.0 | 9.0 | 0.00 | 0.00 | 0.00 | 22 | 1004.7 |
| 20260509150505 | 58 | 270 | 3.0 | 10.0 | 0.00 | 0.00 | 0.00 | 23 | 1004.8 |
| 20260509150004 | 57 | 291 | 5.0 | 10.0 | 0.00 | 0.00 | 0.00 | 25 | 1004.6 |
| 20260509145004 | 57 | 203 | 7.0 | 14.0 | 0.00 | 0.00 | 0.00 | 23 | 1004.7 |
| 20260509144504 | 57 | 199 | 7.0 | 12.0 | 0.00 | 0.00 | 0.00 | 26 | 1004.6 |
| 20260509144004 | 57 | 199 | 5.0 | 10.0 | 0.00 | 0.00 | 0.00 | 23 | 1004.7 |
| 20260509143504 | 57 | 237 | 6.0 | 13.0 | 0.00 | 0.00 | 0.00 | 22 | 1004.8 |
| 20260509143004 | 57 | 253 | 2.0 | 7.0 | 0.00 | 0.00 | 0.00 | 27 | 1004.7 |
| 20260509142504 | 57 | 85 | 3.0 | 6.0 | 0.00 | 0.00 | 0.00 | 27 | 1004.5 |
| 20260509142005 | 56 | 167 | 1.0 | 2.0 | 0.00 | 0.00 | 0.00 | 27 | 1004.7 |
| 20260509141504 | 56 | 280 | 0.0 | 2.0 | 0.00 | 0.00 | 0.00 | 26 | 1004.7 |
| 20260509141004 | 55 | 261 | 1.0 | 6.0 | 0.00 | 0.00 | 0.00 | 26 | 1004.7 |
| 20260509140505 | 54 | 243 | 3.0 | 10.0 | 0.00 | 0.00 | 0.00 | 29 | 1004.6 |
| 20260509140005 | 54 | 257 | 3.0 | 13.0 | 0.00 | 0.00 | 0.00 | 31 | 1004.7 |
| 20260509135505 | 54 | 249 | 2.0 | 12.0 | 0.00 | 0.00 | 0.00 | 31 | 1004.9 |
| 20260509134504 | 52 | 279 | 4.0 | 7.0 | 0.00 | 0.00 | 0.00 | 33 | 1005.2 |
| 20260509134004 | 52 | 257 | 6.0 | 15.0 | 0.00 | 0.00 | 0.00 | 31 | 1005.1 |
| 20260509133504 | 52 | 269 | 7.0 | 13.0 | 0.00 | 0.00 | 0.00 | 33 | 1005.2 |
| 20260509133005 | 52 | 287 | 2.0 | 6.0 | 0.00 | 0.00 | 0.00 | 35 | 1004.9 |
| 20260509132504 | 51 | 282 | 5.0 | 6.0 | 0.00 | 0.00 | 0.00 | 34 | 1004.8 |
| 20260509132004 | 51 | 265 | 4.0 | 7.0 | 0.00 | 0.00 | 0.00 | 37 | 1004.8 |
| 20260509131504 | 50 | 237 | 5.0 | 12.0 | 0.00 | 0.00 | 0.00 | 38 | 1004.8 |
| 20260509131005 | 50 | 252 | 3.0 | 9.0 | 0.00 | 0.00 | 0.00 | 38 | 1004.7 |
| 20260509130504 | 49 | 230 | 5.0 | 9.0 | 0.00 | 0.00 | 0.00 | 40 | 1004.7 |
| 20260509130004 | 48 | 253 | 4.0 | 12.0 | 0.00 | 0.00 | 0.00 | 39 | 1004.7 |
| 20260509125005 | 49 | 254 | 3.0 | 5.0 | 0.00 | 0.00 | 0.00 | 39 | 1004.5 |
| 20260509124504 | 49 | 254 | 5.0 | 9.0 | 0.00 | 0.00 | 0.00 | 38 | 1004.5 |
| 20260509123504 | 50 | 240 | 5.0 | 13.0 | 0.00 | 0.00 | 0.00 | 37 | 1004.3 |
| 20260509122503 | 50 | 258 | 4.0 | 8.0 | 0.00 | 0.00 | 0.00 | 37 | 1004.1 |
| 20260509121504 | 51 | 270 | 5.0 | 12.0 | 0.00 | 0.00 | 0.00 | 36 | 1004.0 |
| 20260509121004 | 51 | 248 | 5.0 | 12.0 | 0.00 | 0.00 | 0.00 | 35 | 1004.1 |
| 20260509120005 | 50 | 276 | 16.0 | 28.0 | 0.00 | 0.00 | 0.00 | 36 | 1003.7 |
| 20260509115504 | 49 | 263 | 8.0 | 12.0 | 0.00 | 0.00 | 0.00 | 40 | 1003.7 |
| 20260509115004 | 49 | 244 | 9.0 | 17.0 | 0.00 | 0.00 | 0.00 | 40 | 1003.9 |
| 20260509114504 | 49 | 243 | 8.0 | 21.0 | 0.00 | 0.00 | 0.00 | 41 | 1003.9 |
| 20260509113504 | 50 | 245 | 9.0 | 17.0 | 0.00 | 0.00 | 0.00 | 40 | 1003.7 |
| 20260509113004 | 50 | 250 | 10.0 | 17.0 | 0.00 | 0.00 | 0.00 | 40 | 1003.7 |
| 20260509112504 | 51 | 259 | 14.0 | 26.0 | 0.00 | 0.00 | 0.00 | 38 | 1003.5 |
| 20260509112004 | 51 | 248 | 7.0 | 18.0 | 0.00 | 0.00 | 0.00 | 39 | 1003.6 |
| 20260509111004 | 51 | 245 | 13.0 | 29.0 | 0.00 | 0.00 | 0.00 | 39 | 1003.3 |
| 20260509105004 | 50 | 242 | 12.0 | 20.0 | 0.00 | 0.00 | 0.00 | 41 | 1003.6 |
| 20260509104504 | 50 | 246 | 7.0 | 20.0 | 0.00 | 0.00 | 0.00 | 42 | 1003.8 |
| 20260509104004 | 50 | 232 | 7.0 | 14.0 | 0.00 | 0.00 | 0.00 | 42 | 1003.9 |
| 20260509103504 | 49 | 257 | 7.0 | 14.0 | 0.00 | 0.00 | 0.00 | 42 | 1004.1 |
| 20260509103004 | 49 | 236 | 6.0 | 14.0 | 0.00 | 0.00 | 0.00 | 43 | 1004.2 |
| 20260509102504 | 49 | 240 | 7.0 | 16.0 | 0.00 | 0.00 | 0.00 | 43 | 1003.8 |
| 20260509101504 | 50 | 254 | 7.0 | 16.0 | 0.00 | 0.00 | 0.00 | 42 | 1004.1 |
| 20260509101004 | 50 | 269 | 10.0 | 18.0 | 0.00 | 0.00 | 0.00 | 42 | 1004.0 |
| 20260509100505 | 51 | 244 | 7.0 | 15.0 | 0.00 | 0.00 | 0.00 | 41 | 1003.8 |
| 20260509100005 | 51 | 253 | 11.0 | 18.0 | 0.00 | 0.00 | 0.00 | 40 | 1003.9 |
| 20260509095504 | 51 | 254 | 9.0 | 17.0 | 0.00 | 0.00 | 0.00 | 41 | 1004.0 |
| 20260509095004 | 50 | 249 | 12.0 | 21.0 | 0.00 | 0.00 | 0.00 | 41 | 1003.8 |
| 20260509094504 | 50 | 244 | 7.0 | 15.0 | 0.00 | 0.00 | 0.00 | 42 | 1003.9 |
| 20260509094004 | 51 | 259 | 13.0 | 22.0 | 0.00 | 0.00 | 0.00 | 41 | 1003.8 |
| 20260509093504 | 50 | 246 | 11.0 | 24.0 | 0.00 | 0.00 | 0.00 | 42 | 1003.8 |
| 20260509093004 | 50 | 250 | 9.0 | 14.0 | 0.00 | 0.00 | 0.00 | 42 | 1003.8 |
| 20260509092004 | 49 | 244 | 7.0 | 13.0 | 0.00 | 0.00 | 0.00 | 44 | 1004.3 |
| 20260509091504 | 48 | 236 | 7.0 | 12.0 | 0.00 | 0.00 | 0.00 | 46 | 1004.5 |
| 20260509091004 | 48 | 241 | 6.0 | 12.0 | 0.00 | 0.00 | 0.00 | 47 | 1004.7 |
| 20260509090504 | 47 | 241 | 7.0 | 14.0 | 0.00 | 0.00 | 0.00 | 48 | 1004.7 |
| 20260509085504 | 44 | 251 | 5.0 | 12.0 | 0.00 | 0.00 | 0.00 | 57 | 1004.7 |
| 20260509085005 | 39 | 243 | 7.0 | 13.0 | 0.00 | 0.00 | 0.00 | 69 | 1004.7 |
| 20260509084504 | 35 | 241 | 6.0 | 14.0 | 0.00 | 0.00 | 0.00 | 82 | 1004.8 |
| 20260509083504 | 35 | 336 | 1.0 | 3.0 | 0.00 | 0.00 | 0.00 | 87 | 1004.7 |
| 20260509083004 | 35 | 317 | 1.0 | 5.0 | 0.00 | 0.00 | 0.00 | 88 | 1004.7 |
| 20260509082004 | 35 | 177 | 3.0 | 5.0 | 0.00 | 0.00 | 0.00 | 88 | 1004.7 |
| 20260509081004 | 35 | 177 | 1.0 | 3.0 | 0.00 | 0.00 | 0.00 | 87 | 1004.8 |
| 20260509080505 | 35 | 177 | 1.0 | 3.0 | 0.00 | 0.00 | 0.00 | 87 | 1004.8 |
| 20260509080004 | 35 | 288 | 1.0 | 3.0 | 0.00 | 0.00 | 0.00 | 87 | 1004.8 |
| 20260509075504 | 35 | 288 | 0.0 | 2.0 | 0.00 | 0.00 | 0.00 | 87 | 1004.8 |
| 20260509073504 | 36 | 288 | 3.0 | 3.0 | 0.00 | 0.00 | 0.00 | 86 | 1005.3 |
| 20260509073004 | 36 | 288 | 1.0 | 3.0 | 0.00 | 0.00 | 0.00 | 86 | 1005.4 |
| 20260509072504 | 36 | 288 | 2.0 | 3.0 | 0.00 | 0.00 | 0.00 | 86 | 1005.3 |
| 20260509071504 | 36 | 288 | 2.0 | 5.0 | 0.00 | 0.00 | 0.00 | 86 | 1005.4 |
| 20260509071004 | 36 | 321 | 2.0 | 3.0 | 0.00 | 0.00 | 0.00 | 85 | 1005.6 |
| 20260509070504 | 37 | 321 | 1.0 | 3.0 | 0.00 | 0.00 | 0.00 | 85 | 1005.6 |
| 20260509070005 | 37 | 321 | 0.0 | 2.0 | 0.00 | 0.00 | 0.00 | 85 | 1005.8 |
| 20260509065504 | 37 | 321 | 0.0 | 1.0 | 0.00 | 0.00 | 0.00 | 85 | 1005.8 |
| 20260509065004 | 37 | 321 | 3.0 | 5.0 | 0.00 | 0.00 | 0.00 | 84 | 1005.8 |
| 20260509064504 | 37 | 321 | 2.0 | 3.0 | 0.00 | 0.00 | 0.00 | 84 | 1005.8 |
| 20260509064004 | 37 | 321 | 1.0 | 2.0 | 0.00 | 0.00 | 0.00 | 84 | 1005.7 |
| 20260509063004 | 38 | 321 | 4.0 | 6.0 | 0.00 | 0.00 | 0.00 | 82 | 1005.8 |
| 20260509062504 | 38 | 215 | 2.0 | 3.0 | 0.00 | 0.00 | 0.00 | 82 | 1005.9 |
| 20260509062004 | 38 | 215 | 2.0 | 2.0 | 0.00 | 0.00 | 0.00 | 82 | 1005.9 |
| 20260509061504 | 38 | 215 | 1.0 | 3.0 | 0.00 | 0.00 | 0.00 | 81 | 1006.0 |
| 20260509060504 | 39 | 215 | 1.0 | 3.0 | 0.00 | 0.00 | 0.00 | 81 | 1006.0 |
| 20260509055504 | 39 | 215 | 1.0 | 2.0 | 0.00 | 0.00 | 0.00 | 80 | 1006.0 |
| 20260509055004 | 39 | 215 | 2.0 | 3.0 | 0.00 | 0.00 | 0.00 | 80 | 1006.2 |
| 20260509054504 | 39 | 215 | 2.0 | 3.0 | 0.00 | 0.00 | 0.00 | 79 | 1006.5 |
| 20260509054004 | 40 | 215 | 2.0 | 3.0 | 0.00 | 0.00 | 0.00 | 78 | 1006.5 |
| 20260509053504 | 40 | 215 | 1.0 | 3.0 | 0.00 | 0.00 | 0.00 | 77 | 1006.6 |
| 20260509053004 | 40 | 215 | 0.0 | 1.0 | 0.00 | 0.00 | 0.00 | 76 | 1006.6 |
| 20260509052004 | 41 | 215 | 1.0 | 3.0 | 0.00 | 0.00 | 0.00 | 76 | 1006.7 |
| 20260509051004 | 41 | 215 | 2.0 | 3.0 | 0.00 | 0.00 | 0.00 | 77 | 1006.7 |
| 20260509050504 | 41 | 215 | 1.0 | 3.0 | 0.00 | 0.00 | 0.00 | 79 | 1006.7 |
| 20260509045504 | 41 | 21 | 1.0 | 2.0 | 0.00 | 0.00 | 0.00 | 79 | 1006.7 |
| 20260509045004 | 41 | 21 | 1.0 | 2.0 | 0.00 | 0.00 | 0.00 | 79 | 1006.7 |
| 20260509044504 | 41 | 21 | 0.0 | 1.0 | 0.00 | 0.00 | 0.00 | 79 | 1006.7 |
| 20260509043004 | 42 | 218 | 0.0 | 2.0 | 0.00 | 0.00 | 0.00 | 77 | 1007.1 |
| 20260509042504 | 42 | 218 | 0.0 | 2.0 | 0.00 | 0.00 | 0.00 | 77 | 1007.1 |
| 20260509042004 | 42 | 218 | 1.0 | 3.0 | 0.00 | 0.01 | 0.00 | 77 | 1007.1 |
| 20260509041504 | 42 | 218 | 3.0 | 5.0 | 0.00 | 0.01 | 0.00 | 77 | 1006.9 |
| 20260509041004 | 42 | 18 | 0.0 | 2.0 | 0.00 | 0.01 | 0.00 | 77 | 1006.8 |
| 20260509040504 | 43 | 18 | 1.0 | 2.0 | 0.00 | 0.01 | 0.00 | 77 | 1006.7 |
| 20260509040005 | 43 | 18 | 1.0 | 2.0 | 0.00 | 0.01 | 0.00 | 76 | 1007.0 |
| 20260509035004 | 43 | 18 | 2.0 | 3.0 | 0.00 | 0.01 | 0.00 | 76 | 1006.9 |